Location: Unspecified
(0.0000°N, 0.0000°E)
Time: 18:57:12
(UTC+00:00)

Tiangong 2 - Pass Details

Date: 24 May 2017
Orbit: 386 x 391 km, 42.8° (Epoch: 20 November)

Event Time Altitude Azimuth Distance (km) Brightness Sun altitude
Exits shadow 03:16:49 - 49° (NE) 2,087 5.7 -36.9°
Enters shadow 04:25:45 -50° 311° (NW) 10,220 8.3 -21.2°
Maximum altitude 04:53:13 67° 45° (NE) 424 1.4 -14.8°
